This is the latest recevied weather packets stored in our database for station/object SP1BMW-13. If no packets are shown the sender has not sent any weather packets the latest 10 day(s).
| Time | Temp. | Humidity | Pressure | Rain* | Wind** | Luminosity | Snow |
|---|---|---|---|---|---|---|---|
| 1788004761 | 24.44° C | 52% | 1009.6 hPa | 0 mm | 0.89 m/s, 313° | 211 W/m² | - |
| 1788004701 | 24.44° C | 52% | 1009.5 hPa | 0 mm | 0.89 m/s, 271° | 226 W/m² | - |
| 1788004641 | 24.44° C | 51% | 1009.5 hPa | 0 mm | 0.89 m/s, 265° | 226 W/m² | - |
| 1788004581 | 24.44° C | 53% | 1009.7 hPa | 0 mm | 1.34 m/s, 242° | 219 W/m² | - |
| 1788004521 | 24.44° C | 52% | 1009.5 hPa | 0 mm | 0.45 m/s, 285° | 281 W/m² | - |
| 1788004462 | 24.44° C | 52% | 1009.5 hPa | 0 mm | 0.45 m/s, 354° | 213 W/m² | - |
| 1788004401 | 24.44° C | 52% | 1009.5 hPa | 0 mm | 0.89 m/s, 272° | 218 W/m² | - |
| 1788004342 | 24.44° C | 52% | 1009.4 hPa | 0 mm | 0.89 m/s, 182° | 437 W/m² | - |
| 1788004281 | 24.44° C | 50% | 1009.6 hPa | 0 mm | 0.89 m/s, 271° | 734 W/m² | - |
| 1788004221 | 24.44° C | 51% | 1009.4 hPa | 0 mm | 0.45 m/s, 346° | 734 W/m² | - |
| 1788004161 | 24.44° C | 50% | 1009.6 hPa | 0 mm | 1.79 m/s, 182° | 181 W/m² | - |
| 1788004101 | 24.44° C | 52% | 1009.4 hPa | 0 mm | 0 m/s | 150 W/m² | - |
| 1788004041 | 24.44° C | 51% | 1009.5 hPa | 0 mm | 0.45 m/s, 129° | 148 W/m² | - |
| 1788003981 | 24.44° C | 52% | 1009.5 hPa | 0 mm | 0.45 m/s, 64° | 175 W/m² | - |
| 1788003921 | 25° C | 51% | 1009.5 hPa | 0 mm | 0.89 m/s, 241° | 720 W/m² | - |
| 1788003860 | 25° C | 49% | 1009.6 hPa | 0 mm | 1.79 m/s, 262° | 729 W/m² | - |
| 1788003801 | 25.56° C | 49% | 1009.6 hPa | 0 mm | 3.58 m/s, 203° | 634 W/m² | - |
| 1788003741 | 25.56° C | 50% | 1009.5 hPa | 0 mm | 0.89 m/s, 177° | 258 W/m² | - |
| 1788003681 | 25.56° C | 50% | 1009.3 hPa | 0 mm | 1.34 m/s, 241° | 158 W/m² | - |
| 1788003621 | 25° C | 49% | 1009.5 hPa | 0 mm | 1.79 m/s, 255° | 719 W/m² | - |
| 1788003561 | 25° C | 52% | 1009.5 hPa | 0 mm | 0.89 m/s, 248° | 343 W/m² | - |
| 1788003501 | 25° C | 50% | 1009.5 hPa | 0 mm | 0.45 m/s, 80° | 726 W/m² | - |
| 1788003441 | 25° C | 50% | 1009.4 hPa | 0 mm | 0.45 m/s, 150° | 715 W/m² | - |
| 1788003381 | 24.44° C | 51% | 1009.6 hPa | 0 mm | 0.89 m/s, 75° | 719 W/m² | - |
| 1788003321 | 24.44° C | 50% | 1009.3 hPa | 0 mm | 3.13 m/s, 279° | 725 W/m² | - |
* Rain latest hour (hover to see other rain measurements)
** Current wind speed in m/s (hover to see current wind gust speed)